When you browse on this site, cookies collect data to enhance your experience and personalize the content and advertising you see.
Visit our Privacy Policy to learn more. By continuing to use the site, you agree to this use of cookies and data.
  • In Latvia
  • List of Countries
  • For 7 days
  • Water Temperature
  • Satellite Maps
  • Weather Map
  • Weather Widgets
  • user-avatar
    Login

    Hourly Weather Leuseni

    Today, 13 December, Thursday

    Time Temperature Precipitation Wind Pressure Humidity
    00:00 -2°C° 0 mm 4 mps 760 mmHg 81%
    01:00 -2°C° 0 mm 4 mps 760 mmHg 81%
    02:00 -2°C° 0 mm 4 mps 759 mmHg 82%
    03:00 -2°C° 0.2 mm 4 mps 759 mmHg 82%
    04:00 -2°C° 0.2 mm 5 mps 759 mmHg 81%
    05:00 -1°C° 0.2 mm 5 mps 759 mmHg 81%
    06:00 -1°C° 0.2 mm 5 mps 759 mmHg 81%
    07:00 -1°C° 0.2 mm 5 mps 759 mmHg 81%
    08:00 -1°C° 0.2 mm 5 mps 759 mmHg 81%
    09:00 -1°C° 0.2 mm 5 mps 759 mmHg 80%
    10:00 -1°C° 0.2 mm 6 mps 759 mmHg 78%
    11:00 -1°C° 0.2 mm 6 mps 759 mmHg 77%
    12:00 -1°C° 0.1 mm 6 mps 759 mmHg 77%
    13:00 0°C° 0.1 mm 5 mps 759 mmHg 76%
    14:00 0°C° 0 mm 5 mps 758 mmHg 79%
    15:00 0°C° 0.1 mm 5 mps 759 mmHg 81%
    16:00 0°C° 0.1 mm 4 mps 759 mmHg 82%
    17:00 -1°C° 0.1 mm 4 mps 760 mmHg 84%
    18:00 -1°C° 0.1 mm 4 mps 760 mmHg 85%
    19:00 -1°C° 0.1 mm 4 mps 760 mmHg 87%
    20:00 -1°C° 0.1 mm 4 mps 760 mmHg 88%
    21:00 -1°C° 0.1 mm 4 mps 760 mmHg 88%
    22:00 -2°C° 0.1 mm 4 mps 761 mmHg 89%
    23:00 -2°C° 0.1 mm 4 mps 761 mmHg 90%

    Tomorrow, 14 December, Friday

    Time Temperature Precipitation Wind Pressure Humidity
    00:00 -2°C° 0 mm 4 mps 761 mmHg 90%
    01:00 -1°C° 0 mm 3 mps 762 mmHg 90%
    02:00 -1°C° 0 mm 3 mps 762 mmHg 90%
    03:00 -1°C° 0 mm 3 mps 762 mmHg 90%
    04:00 -1°C° 0 mm 3 mps 762 mmHg 90%
    05:00 -1°C° 0 mm 3 mps 762 mmHg 89%
    06:00 -2°C° 0 mm 3 mps 763 mmHg 90%
    07:00 -2°C° 0 mm 2 mps 763 mmHg 90%
    08:00 -2°C° 0 mm 2 mps 763 mmHg 90%
    09:00 -1°C° 0 mm 3 mps 764 mmHg 87%
    10:00 0°C° 0 mm 3 mps 764 mmHg 85%
    11:00 0°C° 0 mm 3 mps 764 mmHg 82%
    12:00 0°C° 0 mm 3 mps 764 mmHg 82%
    13:00 +1°C° 0 mm 3 mps 765 mmHg 82%
    14:00 +1°C° 0 mm 3 mps 765 mmHg 81%
    15:00 +1°C° 0 mm 2 mps 765 mmHg 84%
    16:00 +1°C° 0 mm 2 mps 765 mmHg 87%
    17:00 +1°C° 0 mm 1 mps 766 mmHg 89%
    18:00 +1°C° 0 mm 1 mps 766 mmHg 90%
    19:00 +1°C° 0 mm 1 mps 766 mmHg 90%
    20:00 +1°C° 0 mm 1 mps 766 mmHg 91%
    21:00 0°C° 0 mm 1 mps 767 mmHg 91%
    22:00 0°C° 0 mm 1 mps 767 mmHg 91%
    23:00 0°C° 0 mm 1 mps 767 mmHg 91%

    Day after tomorrow, 15 December, Saturday

    Time Temperature Precipitation Wind Pressure Humidity
    00:00 0°C° 0 mm 1 mps 767 mmHg 91%
    01:00 0°C° 0 mm 1 mps 767 mmHg 91%
    02:00 0°C° 0 mm 1 mps 768 mmHg 91%
    03:00 0°C° 0 mm 1 mps 767 mmHg 91%
    04:00 0°C° 0 mm 1 mps 767 mmHg 91%
    05:00 -2°C° 0 mm 2 mps 767 mmHg 91%
    06:00 -2°C° 0.1 mm 2 mps 767 mmHg 90%
    07:00 -2°C° 0.1 mm 2 mps 768 mmHg 90%
    08:00 -2°C° 0.1 mm 2 mps 768 mmHg 90%
    09:00 -2°C° 0.1 mm 2 mps 768 mmHg 89%
    10:00 -2°C° 0.1 mm 3 mps 768 mmHg 88%
    11:00 -1°C° 0.1 mm 3 mps 768 mmHg 87%
    12:00 -1°C° 0.1 mm 3 mps 768 mmHg 87%
    13:00 -2°C° 0.1 mm 4 mps 768 mmHg 87%
    14:00 -2°C° 0.1 mm 4 mps 768 mmHg 87%
    15:00 -2°C° 0.2 mm 4 mps 768 mmHg 88%
    16:00 -2°C° 0.2 mm 4 mps 768 mmHg 89%
    17:00 -2°C° 0.2 mm 4 mps 768 mmHg 90%
    18:00 -2°C° 0.2 mm 4 mps 768 mmHg 90%
    19:00 -2°C° 0.2 mm 4 mps 768 mmHg 90%
    20:00 -2°C° 0.2 mm 4 mps 768 mmHg 90%
    21:00 -2°C° 0.4 mm 4 mps 768 mmHg 90%
    22:00 -4°C° 0.4 mm 5 mps 768 mmHg 91%
    23:00 -4°C° 0.4 mm 5 mps 768 mmHg 91%

    16 December, Sunday

    Time Temperature Precipitation Wind Pressure Humidity
    00:00 -4°C° 0.2 mm 5 mps 768 mmHg 91%
    01:00 -4°C° 0.2 mm 5 mps 768 mmHg 90%
    02:00 -2°C° 0.2 mm 5 mps 767 mmHg 90%
    03:00 -2°C° 0.3 mm 5 mps 767 mmHg 90%
    04:00 -2°C° 0.3 mm 5 mps 767 mmHg 89%
    05:00 -2°C° 0.3 mm 5 mps 767 mmHg 89%
    06:00 -4°C° 0.5 mm 5 mps 767 mmHg 90%
    07:00 -4°C° 0.5 mm 5 mps 767 mmHg 91%
    08:00 -4°C° 0.5 mm 5 mps 767 mmHg 92%
    09:00 -2°C° 0.4 mm 5 mps 767 mmHg 92%
    10:00 -2°C° 0.4 mm 4 mps 767 mmHg 91%
    11:00 -2°C° 0.4 mm 4 mps 767 mmHg 91%
    12:00 -2°C° 0.1 mm 4 mps 767 mmHg 91%
    13:00 -2°C° 0.1 mm 4 mps 767 mmHg 91%
    14:00 -1°C° 0.1 mm 4 mps 766 mmHg 91%
    15:00 -2°C° 0 mm 4 mps 767 mmHg 92%
    16:00 -2°C° 0 mm 4 mps 767 mmHg 92%
    17:00 -2°C° 0 mm 4 mps 767 mmHg 92%
    18:00 -2°C° 0 mm 4 mps 767 mmHg 92%
    19:00 -2°C° 0 mm 4 mps 767 mmHg 93%
    20:00 -2°C° 0 mm 4 mps 767 mmHg 93%
    21:00 -3°C° 0 mm 4 mps 767 mmHg 93%
    22:00 -2°C° 0 mm 3 mps 767 mmHg 93%
    23:00 -2°C° 0 mm 3 mps 767 mmHg 93%

    17 December, Monday

    Time Temperature Precipitation Wind Pressure Humidity
    00:00 -2°C° 0 mm 3 mps 767 mmHg 93%
    01:00 -2°C° 0 mm 2 mps 767 mmHg 93%
    02:00 -3°C° 0 mm 2 mps 767 mmHg 93%
    03:00 -3°C° 0 mm 2 mps 767 mmHg 94%
    04:00 -3°C° 0 mm 2 mps 767 mmHg 94%
    05:00 -3°C° 0 mm 2 mps 767 mmHg 95%
    06:00 -3°C° 0.1 mm 2 mps 767 mmHg 95%
    07:00 -3°C° 0.1 mm 2 mps 767 mmHg 95%
    08:00 -3°C° 0.1 mm 2 mps 767 mmHg 95%
    09:00 -3°C° 0.1 mm 2 mps 767 mmHg 94%
    10:00 -3°C° 0.1 mm 2 mps 767 mmHg 92%
    11:00 -2°C° 0.1 mm 2 mps 767 mmHg 91%
    12:00 -2°C° 0.1 mm 2 mps 766 mmHg 91%
    13:00 -2°C° 0.1 mm 2 mps 766 mmHg 90%
    14:00 -1°C° 0.1 mm 2 mps 766 mmHg 90%
    15:00 -2°C° 0 mm 2 mps 766 mmHg 91%
    16:00 -2°C° 0 mm 2 mps 766 mmHg 92%
    17:00 -3°C° 0 mm 2 mps 766 mmHg 93%
    18:00 -3°C° 0 mm 2 mps 766 mmHg 93%
    19:00 -4°C° 0 mm 3 mps 766 mmHg 93%
    20:00 -4°C° 0 mm 3 mps 766 mmHg 92%
    21:00 -4°C° 0 mm 3 mps 766 mmHg 93%
    22:00 -3°C° 0 mm 2 mps 767 mmHg 93%
    23:00 -3°C° 0 mm 2 mps 767 mmHg 93%

    18 December, Tuesday

    Time Temperature Precipitation Wind Pressure Humidity
    00:00 -3°C° 0 mm 2 mps 767 mmHg 94%
    01:00 -3°C° 0 mm 2 mps 767 mmHg 94%
    02:00 -3°C° 0 mm 2 mps 767 mmHg 94%
    03:00 -3°C° 0.1 mm 2 mps 767 mmHg 94%
    04:00 -4°C° 0.1 mm 2 mps 767 mmHg 94%
    05:00 -4°C° 0.1 mm 2 mps 767 mmHg 94%
    06:00 -4°C° 0.2 mm 2 mps 767 mmHg 94%
    07:00 -3°C° 0.2 mm 2 mps 767 mmHg 94%
    08:00 -1°C° 0.2 mm 1 mps 768 mmHg 94%
    09:00 -1°C° 0.3 mm 1 mps 768 mmHg 93%
    10:00 -1°C° 0.3 mm 1 mps 768 mmHg 92%
    11:00 -1°C° 0.3 mm 1 mps 769 mmHg 91%
    12:00 -1°C° 0.1 mm 1 mps 769 mmHg 91%
    13:00 0°C° 0.1 mm 1 mps 768 mmHg 90%
    14:00 0°C° 0.1 mm 1 mps 768 mmHg 89%
    15:00 0°C° 0.1 mm 1 mps 768 mmHg 91%
    16:00 -1°C° 0.1 mm 1 mps 769 mmHg 92%
    17:00 -1°C° 0.1 mm 1 mps 769 mmHg 93%
    18:00 -1°C° 0.2 mm 1 mps 769 mmHg 93%
    19:00 -3°C° 0.2 mm 2 mps 769 mmHg 94%
    20:00 -3°C° 0.2 mm 2 mps 769 mmHg 94%
    21:00 -1°C° 0.2 mm 1 mps 770 mmHg 94%
    22:00 -1°C° 0.2 mm 1 mps 770 mmHg 94%
    23:00 -2°C° 0.2 mm 1 mps 770 mmHg 95%
    Show more